Regional Weather Roundup
Issued by NWS Charleston, SC

Current Version | Previous Version | Text Only | Print | Product List | Glossary Off
Versions: 1 2 3 4 5 6 7 8 9 10 11 12 13 14 15 16 17 18 19 20 21 22 23 24 25 26 27 28 29 30 31 32 33 34 35 36 37 38 39 40 41 42 43 44 45 46 47 48 49 50
323 ASUS42 KCHS 211112 RWRCHS REGIONAL WEATHER ROUNDUP NATIONAL WEATHER SERVICE CHARLESTON SC 700 AM EDT MON AUG 21 2017 NOTE: "FAIR" INDICATES FEW OR NO CLOUDS BELOW 12,000 FEET WITH NO SIGNIFICANT WEATHER AND/OR OBSTRUCTIONS TO VISIBILITY. NOT ALL STATIONS ARE QUALITY CONTROLLED. USE DATA WITH CAUTION... ESPECIALLY DEWPOINT OBSERVATIONS. SCZ027-030-031-034>040-042>050-211200- ...SOUTHEAST SOUTH CAROLINA... CITY SKY/WX TMP DP RH WIND PRES REMARKS N CHARLESTON PTCLDY 78 78 100 N3 30.16R WATERFRONT PRK N/A 82 80 94 N5 29.99R HX 94 JOHNS ISLAND FAIR 79 79 100 CALM 30.16R PINOPOLIS N/A 81 79 94 CALM 30.09R MONCKS CORNER FAIR 73 73 100 CALM 30.16R SUMMERVILLE FAIR 75 73 94 CALM 30.17R BEAUFORT MCAS PTCLDY 80 79 96 N3 30.16R BEAUFORT ARPT FAIR 79 77 94 NE3 30.15R HILTON HEAD IS NOT AVBL WALTERBORO SUNNY 73 72 94 CALM 30.17R ALLENDALE NOT AVBL ...SOUTHERN MIDLANDS AND PEE DEE... CITY SKY/WX TMP DP RH WIND PRES REMARKS GEORGETOWN FAIR 75 73 94 CALM 30.18R KINGSTREE FAIR 72 70 94 CALM 30.18R FOG ORANGEBURG PTCLDY 74 72 93 CALM 30.18R BARNWELL FOG 75 75 100 CALM 30.17R VSB 1/4 AIKEN FOG 70 70 100 CALM 30.21R VSB 1/4 MANNING FAIR 73 73 100 E10 30.18R COLUMBIA MOCLDY 76 73 91 CALM 30.17R SUMTER FOG 73 72 94 NE5 30.16R VSB 1 FLORENCE PTCLDY 75 75 100 CALM 30.19R MYRTLE BEACH PTCLDY 79 77 94 NE7 30.18R N MYRTLE BEACH CLOUDY 78 77 96 S6 30.18R FOG $$ GAZ063-065-086>088-099>101-113>116-118-119-134>141-150-211200- ...SOUTHEAST GEORGIA... CITY SKY/WX TMP DP RH WIND PRES REMARKS SAVANNAH ARPT PTCLDY 78 77 96 CALM 30.16R HUNTER AAF CLEAR 78 76 93 CALM 30.13R FORT STEWART MOCLDY 75 73 94 CALM 30.13R STATESBORO CLEAR 76 76 100 CALM 30.16R FOG SYLVANIA CLOUDY 76 76 100 CALM 30.17R CLAXTON FAIR 74 73 98 CALM 30.15R FOG ...CSRA...CENTRAL AND FAR SOUTHEAST GEORGIA... CITY SKY/WX TMP DP RH WIND PRES REMARKS THOMSON CLEAR 73 72 96 CALM 30.22R AUGUSTA-BUSH FOG 76 75 97 CALM 30.16R VSB<1/4 AUGUSTA-DANIEL PTCLDY 78 75 90 CALM 30.17R FOG SWAINSBORO FAIR 73 73 100 CALM 30.16R VIDALIA CLEAR 73 73 100 CALM 30.15R EASTMAN FAIR 72 72 100 CALM 30.16S HAZLEHURST FAIR 75 72 92 CALM 30.14R ALMA CLEAR 73 71 93 N3 30.14R WAYCROSS CLEAR 72 69 90 CALM 30.14R JESUP FOG 75 72 88 CALM 30.15R VSB 3/4 BAXLEY FAIR 70 70 100 CALM 30.14R BRUNSWICK CLOUDY 77 75 94 S3 30.14R SAINT SIMONS CLOUDY 81 79 94 N6 30.13R HX 90 $$ SCZ027-028-034-036>038-045-046-048>050-GAZ119-141-211200- ...LAKE AND SUPPLEMENTAL COASTAL OBSERVATIONS... STATION/POSITION TIME TEMP WIND PRES WAVE SWELL AIR SEA DIR/SP/G HT/PER HT/PER/DIR (UTC) (F) (DEG/KT/KT) (MB) (FT/S) (FT/S/D) WINYAH BAY 0945 78 340/ 2 1021.0 LAKE MURRAY 1020 81 220/ 3/ 3 1020.3R ACE BASIN NERRS 0945 78 CALM 1020.0 FORT PULASKI 1048 82 87 360/ 3/ 4 1021.2R SAPELO ISLAND 1000 79 CALM 1020.0 $$ ANZ835-935-AMZ111-154-330-350-352-354-370-450-454-472-211200- ...C-MAN AND BUOY OBSERVATIONS... STATION/POSITION TIME TEMP WIND PRES WAVE SWELL AIR SEA DIR/SP/G HT/PER HT/PER/DIR (UTC) (F) (DEG/KT/KT) (MB) (FT/S) (FT/S/D) BUOY 41004 1050 83 85 80/ 6/ 10 1020.3R 3/ 8 3/140/ 8 BUOY 41008 1050 83 85 120/ 4/ 6 1020.1R 2/ 7 2/130/ 7 FOLLY BEACH CMAN 1000 82 310/ 3/ 3 1021.1R CAPERS NEARSHORE 1008 82 86 330/ 2/ 6 1020.5R FRIPP NEARSHORE 1008 84 150/ 4/ 6 1019.8R STATION/POSITION TIME TEMP WIND PRES WAVE SWELL AIR SEA DIR/SP/G HT/PER HT/PER/DIR (UTC) (F) (DEG/KT/KT) (MB) (FT/S) (FT/S/D) 5E ST. MARYS GA 1030 84 N/A 2/ 8 FRYING PAN BUOY 1050 83 84 160/ 2/ 2 1021.3R 2/ 8 2/130/ 8 BUOY 41025 1050 82 85 40/ 8/ 10 1021.7R 2/ 8 2/110/ 8 CAPE LOOKOUT NC 1000 81 50/ 7/ 8 1020.9R BUOY 41002 1050 83 84 150/ 6/ 8 1022.0R 3/ 9 2/100/ 9 BUOY 41010 1050 84 84 120/ 8/ 10 1019.9R 3/ 9 2/120/ 9 ST AUGUSTINE FL 1100 80 81 50/ 4/ 4 1020.0R $$

USA.gov is the U.S. government's official web portal to all federal, state and local government web resources and services.